Location: Hurstbourne Priors
(51.2000°N, 1.3667°W)
Time: 11:08:11
(UTC+00:00)

Cosmos 1814 Rocket - Pass Details

Date: 09 April 2020
Orbit: 744 x 787 km, 74.1° (Epoch: 23 May)

Event Time Altitude Azimuth Distance (km) Brightness Sun altitude
Rises 21:37:15 0° 334° (NNW) 3,290 8.6 -22.6°
Reaches altitude 10° 21:39:39 10° 333° (NNW) 2,359 7.6 -22.8°
Maximum altitude 21:45:01 77° 248° (WSW) 815 4.1 -23.4°
Enters shadow 21:46:10 55° 179° (S) 946 4.1 -23.5°
